Find Venmus

NORAD ID: 42901 Int'l Des: 2017-044 Owner: ISA/CNES Country: IL operational
LEOCIRCULARRETROGRADESSO

現在のビュー

3D地球を読み込み中...

About Venmus

Venmus (NORAD 42901) is a satellite launched Aug 2, 2017 by ISA/CNES of IL. It operates in LEO, CIRCULAR, RETROGRADE, SSO orbit with a mass of 264.00 kg.

次回通過

Passes for default location (London). Set your location on the main map for personalized predictions.

高度履歴

Loading altitude history...

軌道要素

1 42901U 17044B 26195.17779444 .00003551 00000-0 19366-3 0 9990
2 42901 97.2701 230.6280 0001533 256.9779 103.1283 15.14982894485042
Epoch: Jul 14, 2026 • Age: 4 hours

現在のステータス

高度 523.4 km
遠地点 / 近地点 N/A
速度 7.60 km/s
衛星直下点 14.97°N, 1.93°W
打ち上げ日 Aug 2, 2017
運用期間 8.9 years
タイプ other

技術仕様

分類 Payload
質量 264.00 kg
乾燥質量 250.00 kg
総質量 264.00 kg
長さ 1.70 m
直径 1.20 m
スパン 4.50 m
形状 Box + 2 pan
製造者 IAI
バスタイプ Venms
フェーズステータス In Orbit
所有者/国 ISA/CNES/IL

Most Searched